[[{"header":{"parameterUnit":"m.s-1","parameterCategory":1,"la1":30.2991,"la2":30.254,"lo1":-89.0895,"lo2":-89.0444,"dy":0.0017,"dx":0.0017,"nx":28,"ny":28,"refTime":"2024-06-22T03:00:00:Z","depth":0,"parameterNumber":2,"parameterNumberName":"U-component_of_WINDS"},"data":[0,0,0,0,0,0,0,0,0,0,0,0,0,0,0,0,0,0,0,0,0,0,0,0,0,0,0,0,0,0,0,0,0,0,0,0,0,0,0,0,0,0,0,0,0,0,0,0,0,0,0,0,0,0,0,0,0,0,-0.3616,-0.3616,0,-0.3631,-0.3631,-0.3631,-0.3612,-0.3611,-0.3611,-0.361,-0.3627,-0.3628,-0.3629,0,0,0,0,0,0,0,0,0,0,0,0,0,-0.3574,-0.3575,-0.3616,-0.3616,-0.3617,-0.3631,-0.3631,-0.3631,-0.3612,-0.3611,-0.361,-0.361,-0.3627,-0.3628,-0.3629,0,0,0,0,0,0,0,0,0,0,0,0,0,-0.3591,-0.3575,-0.3616,-0.3609,-0.3608,-0.3631,-0.3631,-0.3631,-0.3612,-0.3611,-0.361,-0.3609,-0.3626,-0.3628,-0.3629,-0.366,0,0,-0.3634,-0.3635,0,0,0,0,0,0,0,0,-0.359,-0.3592,-0.361,-0.3609,-0.3609,-0.3618,-0.3622,-0.3641,-0.3612,-0.3611,-0.361,-0.3609,-0.3625,-0.3627,-0.3632,-0.3661,-0.3662,-0.3635,-0.3636,-0.3636,-0.3637,0,0,0,0,0,0,0,-0.3588,-0.3591,-0.3622,-0.361,-0.3609,-0.3605,-0.3606,-0.3625,-0.3624,-0.3611,-0.361,-0.3611,-0.3625,-0.363,-0.3632,-0.3662,-0.3635,-0.3636,-0.3637,-0.3638,-0.3716,-0.3718,0,0,0,0,0,0,-0.3588,-0.3591,-0.3622,-0.3622,-0.3596,-0.3607,-0.3608,-0.3616,-0.3623,-0.3623,-0.3612,-0.361,-0.3628,-0.363,-0.3633,-0.3669,-0.3636,-0.3638,-0.3639,-0.3715,-0.3717,-0.3718,0,0,0,0,0,0,-0.3587,-0.3591,-0.3621,-0.3606,-0.361,-0.3609,-0.3618,-0.3617,-0.3623,-0.3624,-0.3624,-0.3618,-0.3627,-0.363,-0.3653,-0.3669,-0.3639,-0.364,-0.3714,-0.3716,-0.3717,-0.3743,0,0,0,0,0,0,-0.3586,-0.3591,-0.3602,-0.3606,-0.361,-0.3641,-0.3619,-0.3618,-0.3625,-0.3623,-0.363,-0.363,-0.3627,-0.3651,-0.3655,-0.3671,-0.3641,-0.3713,-0.3715,-0.3717,-0.374,-0.3745,-0.3749,0,0,0,0,0,-0.3584,-0.361,-0.3603,-0.3607,-0.3625,-0.3642,-0.3645,-0.3639,-0.3627,-0.3639,-0.3639,-0.363,-0.3666,-0.3653,-0.3658,-0.3675,-0.3712,-0.3714,-0.3717,-0.3738,-0.3744,-0.3749,0,0,0,0,0,0,-0.3609,-0.361,-0.3603,-0.363,-0.3636,-0.3639,-0.3654,-0.3646,-0.3656,-0.3654,-0.3647,-0.3649,-0.3673,-0.3676,-0.3661,-0.3704,-0.3687,-0.3691,-0.3702,-0.3707,-0.3712,-0.3711,-0.3643,0,0,0,0,0,-0.3617,-0.3631,-0.3631,-0.3655,-0.3658,-0.3655,-0.3663,-0.3658,-0.3664,-0.3667,-0.367,-0.3677,-0.3689,-0.3698,-0.371,-0.374,-0.3741,-0.3754,-0.3758,-0.3761,-0.3765,-0.378,-0.3786,-0.3726,-0.3726,-0.3726,0,0,-0.3636,-0.3638,-0.3647,-0.366,-0.3664,-0.3678,-0.3658,-0.3674,-0.3685,-0.367,-0.3692,-0.3693,-0.37,-0.3727,-0.3738,-0.373,-0.3781,-0.3764,-0.3767,-0.3769,-0.3783,-0.3789,-0.3794,-0.3728,-0.3727,-0.3727,0,0,-0.3676,-0.3678,-0.3698,-0.3702,-0.3708,-0.3706,-0.371,-0.3714,-0.3714,-0.3735,-0.3724,-0.3736,-0.3759,-0.3765,-0.377,-0.381,-0.3802,-0.3814,-0.3837,-0.3852,-0.3856,-0.3861,-0.3875,-0.388,-0.3817,-0.3817,-0.3817,0,-0.3698,-0.3718,-0.371,-0.3727,-0.3733,-0.3718,-0.3738,-0.3742,-0.3752,-0.3757,-0.3747,-0.3774,-0.3778,-0.3805,-0.3814,-0.3819,-0.3824,-0.3814,-0.3856,-0.386,-0.3864,-0.3878,-0.3883,-0.3819,-0.3818,-0.3818,-0.3818,0,-0.3745,-0.376,-0.3775,-0.3783,-0.3791,-0.3809,-0.3804,-0.3813,-0.3806,-0.3805,-0.3826,-0.383,-0.3842,-0.3848,-0.3843,-0.3874,-0.3868,-0.3857,-0.384,-0.3871,-0.3884,-0.389,-0.3821,-0.382,-0.382,-0.3819,0,0,-0.3804,-0.3806,-0.3812,-0.3815,-0.3819,-0.383,-0.3847,-0.3858,-0.3865,-0.3872,-0.3887,-0.3905,-0.3894,-0.39,-0.3895,-0.3908,-0.3939,-0.3895,-0.3895,-0.3904,-0.3974,-0.3983,-0.399,-0.3933,-0.3934,-0.3935,-0.3974,0,-0.3845,-0.3874,-0.3866,-0.3895,-0.3908,-0.3893,-0.3908,-0.3912,-0.3911,-0.3921,-0.392,-0.3933,-0.3918,-0.3921,-0.3933,-0.3933,-0.3953,-0.393,-0.3947,-0.3948,-0.3947,-0.3996,-0.4006,-0.4043,-0.3979,-0.3979,-0.398,0,-0.3897,-0.3904,-0.3934,-0.3935,-0.394,-0.3954,-0.3962,-0.3972,-0.3976,-0.3974,-0.398,-0.3972,-0.3989,-0.3969,-0.3993,-0.3977,-0.3983,-0.3984,-0.3985,-0.3988,-0.3967,-0.4001,-0.4055,-0.4061,-0.3988,-0.3987,-0.3987,0,-0.3938,-0.3955,-0.3975,-0.3978,-0.3979,-0.3988,-0.3989,-0.3992,-0.3999,-0.4006,-0.401,-0.4019,-0.4025,-0.4032,-0.4027,-0.4013,-0.4051,-0.4032,-0.4051,-0.4051,-0.4061,-0.4061,-0.4117,-0.4063,-0.4063,-0.4062,-0.4062,0,-0.3985,-0.4004,-0.3993,-0.4006,-0.4026,-0.4016,-0.4037,-0.4037,-0.4039,-0.4051,-0.4038,-0.405,-0.4041,-0.4052,-0.4047,-0.4068,-0.407,-0.4069,-0.4068,-0.4071,-0.4071,-0.4077,-0.4074,-0.4064,-0.4064,-0.4063,-0.4063,0,-0.4035,-0.4028,-0.4049,-0.4047,-0.4047,-0.4063,-0.4061,-0.4073,-0.4069,-0.4085,-0.4088,-0.4083,-0.4095,-0.4089,-0.4102,-0.4099,-0.4125,-0.412,-0.4124,-0.4123,-0.4142,-0.4141,-0.4206,-0.4214,-0.4153,-0.4153,-0.4154,0,-0.4067,-0.4081,-0.408,-0.4086,-0.4088,-0.4099,-0.4105,-0.4095,-0.4101,-0.4106,-0.4117,-0.4127,-0.4136,-0.4156,-0.4154,-0.4163,-0.4159,-0.4181,-0.4161,-0.4163,-0.416,-0.416,-0.4161,-0.4185,-0.4186,-0.4187,-0.4187,0,-0.4123,-0.4118,-0.4127,-0.4134,-0.4141,-0.4146,-0.4151,-0.4157,-0.4147,-0.4155,-0.4166,-0.4172,-0.4184,-0.4196,-0.4203,-0.4205,-0.4195,-0.4193,-0.4198,-0.4202,-0.4204,-0.4204,-0.4136,-0.4192,-0.4192,-0.4191,-0.4191,-0.4191,-0.4166,-0.4177,-0.4178,-0.4188,-0.4189,-0.4193,-0.4203,-0.42,-0.4209,-0.4218,-0.4211,-0.4225,-0.4227,-0.4236,-0.4238,-0.4249,-0.4241,-0.4248,-0.425,-0.4252,-0.4255,-0.4201,-0.425,-0.425,-0.425,-0.425,-0.425,0,-0.4223,-0.4221,-0.423,-0.4236,-0.4243,-0.423,-0.4234,-0.4241,-0.4253,-0.4255,-0.4263,-0.4276,-0.4285,-0.4283,-0.4292,-0.4301,-0.4296,-0.4304,-0.4304,-0.4304,-0.4262,-0.4257,-0.4307,-0.4307,-0.4307,-0.4307,-0.4307,-0.4307,-0.4253,-0.4272,-0.4267,-0.4286,-0.4285,-0.4297,-0.43,-0.4303,-0.4305,-0.432,-0.4327,-0.4325,-0.4325,-0.4333,-0.4342,-0.4341,-0.4345,-0.4354,-0.4352,-0.4313,-0.4307,-0.4302,-0.4297,-0.4355,-0.4355,-0.4393,-0.4394,-0.4394]},{"header":{"parameterUnit":"m.s-1","parameterCategory":1,"la1":30.2991,"la2":30.254,"lo1":-89.0895,"lo2":-89.0444,"dy":0.0017,"dx":0.0017,"nx":28,"ny":28,"refTime":"2024-06-22T03:00:00:Z","depth":0,"parameterNumber":3,"parameterNumberName":"V-component_of_WINDS"},"data":[0,0,0,0,0,0,0,0,0,0,0,0,0,0,0,0,0,0,0,0,0,0,0,0,0,0,0,0,0,0,0,0,0,0,0,0,0,0,0,0,0,0,0,0,0,0,0,0,0,0,0,0,0,0,0,0,0,0,-2.9581,-2.9582,0,-2.965,-2.9651,-2.9651,-2.9635,-2.9634,-2.9632,-2.9631,-2.9697,-2.97,-2.9703,0,0,0,0,0,0,0,0,0,0,0,0,0,-2.943,-2.9433,-2.9581,-2.9582,-2.9583,-2.965,-2.9651,-2.9652,-2.9635,-2.9633,-2.9632,-2.963,-2.9696,-2.9699,-2.9703,0,0,0,0,0,0,0,0,0,0,0,0,0,-2.9497,-2.9434,-2.9581,-2.9583,-2.9583,-2.965,-2.9651,-2.9652,-2.9635,-2.9633,-2.9631,-2.963,-2.9695,-2.9699,-2.9703,-2.9771,0,0,-2.9717,-2.9719,0,0,0,0,0,0,0,0,-2.9493,-2.9503,-2.9581,-2.9583,-2.9584,-2.9632,-2.9622,-2.9692,-2.9636,-2.9616,-2.9631,-2.9629,-2.9676,-2.9682,-2.9699,-2.9774,-2.9777,-2.9717,-2.972,-2.9722,-2.9723,0,0,0,0,0,0,0,-2.9489,-2.9499,-2.9608,-2.9583,-2.9584,-2.9578,-2.9586,-2.9635,-2.9656,-2.9617,-2.9616,-2.9625,-2.9677,-2.9695,-2.9701,-2.9778,-2.9717,-2.9721,-2.9724,-2.9726,-2.991,-2.9912,0,0,0,0,0,0,-2.9484,-2.9496,-2.9606,-2.961,-2.9533,-2.9583,-2.9591,-2.9618,-2.9656,-2.9659,-2.9626,-2.9624,-2.9689,-2.9696,-2.9703,-2.9784,-2.9722,-2.9726,-2.9729,-2.9908,-2.991,-2.9913,0,0,0,0,0,0,-2.9481,-2.9494,-2.9603,-2.9553,-2.9566,-2.9588,-2.9618,-2.9621,-2.9639,-2.9663,-2.9666,-2.9642,-2.9687,-2.9697,-2.9754,-2.9786,-2.9728,-2.9732,-2.9905,-2.9909,-2.9912,-2.9947,0,0,0,0,0,0,-2.9476,-2.9493,-2.952,-2.9554,-2.9569,-2.9655,-2.962,-2.9623,-2.9648,-2.9645,-2.9678,-2.9681,-2.9686,-2.9748,-2.9759,-2.9791,-2.9736,-2.9902,-2.9907,-2.9911,-2.9943,-2.9951,-2.9958,0,0,0,0,0,-2.9471,-2.9526,-2.9521,-2.9534,-2.9603,-2.9656,-2.9665,-2.9671,-2.965,-2.9677,-2.9692,-2.968,-2.9781,-2.9754,-2.9766,-2.98,-2.99,-2.9905,-2.991,-2.9939,-2.9949,-2.9958,0,0,0,0,0,0,-2.9493,-2.953,-2.9525,-2.9593,-2.9622,-2.9654,-2.9687,-2.9681,-2.9716,-2.9711,-2.9716,-2.9723,-2.9782,-2.9797,-2.9766,-2.9867,-2.9837,-2.9845,-2.9855,-2.9865,-2.9872,-2.9867,-2.974,0,0,0,0,0,-2.9506,-2.9548,-2.9577,-2.9634,-2.9649,-2.9666,-2.9689,-2.9691,-2.9721,-2.9732,-2.9752,-2.9779,-2.9817,-2.9842,-2.9878,-2.9945,-2.9951,-2.9975,-2.9982,-2.9988,-2.9994,-3.0031,-3.0041,-2.9929,-2.9929,-2.9929,0,0,-2.9532,-2.9558,-2.9584,-2.9639,-2.9662,-2.9703,-2.9676,-2.9721,-2.9751,-2.9739,-2.9795,-2.981,-2.9841,-2.9903,-2.9932,-2.9917,-3.0027,-2.9994,-2.9999,-3.0002,-3.0037,-3.0047,-3.0057,-2.9933,-2.9932,-2.9931,0,0,-2.9602,-2.9626,-2.9676,-2.97,-2.9735,-2.9746,-2.9758,-2.9791,-2.9801,-2.9858,-2.9849,-2.9885,-2.995,-2.9973,-2.9993,-3.0072,-3.0062,-3.0083,-3.0122,-3.0157,-3.0166,-3.0174,-3.0201,-3.0211,-3.009,-3.009,-3.009,0,-2.963,-2.9694,-2.9702,-2.9748,-2.9772,-2.9765,-2.9815,-2.9837,-2.9881,-2.9897,-2.9881,-2.9963,-2.9984,-3.0051,-3.0071,-3.0088,-3.01,-3.0079,-3.0164,-3.0172,-3.018,-3.0206,-3.0216,-3.0092,-3.0092,-3.0091,-3.0091,0,-2.9727,-2.9771,-2.9807,-2.9853,-2.9881,-2.9928,-2.9942,-2.9969,-2.9969,-2.9982,-3.0039,-3.0063,-3.0104,-3.0121,-3.012,-3.0188,-3.0178,-3.0163,-3.0133,-3.0192,-3.0217,-3.0227,-3.0095,-3.0094,-3.0094,-3.0093,0,0,-2.9812,-2.9862,-2.9875,-2.9895,-2.9934,-2.9968,-3.0015,-3.0056,-3.0079,-3.0111,-3.0149,-3.0205,-3.0192,-3.0215,-3.0217,-3.0248,-3.0308,-3.0229,-3.023,-3.0242,-3.0384,-3.0395,-3.0406,-3.0303,-3.0305,-3.0306,-3.0381,0,-2.9885,-2.997,-2.9978,-3.0053,-3.0094,-3.0087,-3.0128,-3.0155,-3.0168,-3.0203,-3.0217,-3.0256,-3.0236,-3.025,-3.028,-3.0295,-3.0337,-3.0289,-3.0338,-3.0339,-3.033,-3.0419,-3.0431,-3.05,-3.0391,-3.0393,-3.0394,0,-2.9981,-3.0017,-3.0097,-3.013,-3.0148,-3.0184,-3.0223,-3.0258,-3.0288,-3.0295,-3.0321,-3.032,-3.0367,-3.0336,-3.04,-3.0368,-3.0388,-3.0398,-3.0401,-3.0405,-3.037,-3.0425,-3.0523,-3.0533,-3.0409,-3.0408,-3.0407,0,-3.0034,-3.0102,-3.0159,-3.0177,-3.0217,-3.0243,-3.0261,-3.029,-3.0315,-3.0348,-3.0364,-3.0402,-3.0423,-3.0452,-3.046,-3.0436,-3.0523,-3.0493,-3.0529,-3.0529,-3.0547,-3.0546,-3.0649,-3.0561,-3.0561,-3.0561,-3.0561,0,-3.0114,-3.0163,-3.0184,-3.0218,-3.0273,-3.0281,-3.0334,-3.035,-3.0376,-3.0413,-3.0409,-3.0443,-3.0452,-3.0488,-3.0494,-3.0546,-3.0555,-3.0561,-3.0562,-3.0562,-3.0561,-3.0574,-3.0569,-3.0564,-3.0563,-3.0563,-3.0562,0,-3.0183,-3.0199,-3.026,-3.0294,-3.0303,-3.0342,-3.037,-3.0403,-3.0416,-3.0462,-3.0473,-3.0492,-3.0534,-3.0545,-3.0594,-3.0599,-3.066,-3.0656,-3.065,-3.065,-3.0685,-3.0681,-3.0799,-3.0815,-3.0718,-3.0719,-3.072,0,-3.0233,-3.027,-3.0309,-3.0334,-3.0354,-3.0394,-3.042,-3.043,-3.0456,-3.0494,-3.0522,-3.0564,-3.0597,-3.0664,-3.0681,-3.0719,-3.0716,-3.0755,-3.0721,-3.0719,-3.0715,-3.0713,-3.0716,-3.076,-3.0761,-3.0762,-3.0763,0,-3.0319,-3.0326,-3.0364,-3.0405,-3.0436,-3.0468,-3.0499,-3.0519,-3.0533,-3.0563,-3.0606,-3.0633,-3.0684,-3.0725,-3.0763,-3.0779,-3.0773,-3.0774,-3.0784,-3.0783,-3.0777,-3.078,-3.0666,-3.0771,-3.077,-3.0769,-3.0769,-3.0769,-3.038,-3.0413,-3.0446,-3.0488,-3.0513,-3.0542,-3.0574,-3.0592,-3.0629,-3.0672,-3.0675,-3.0722,-3.0751,-3.0802,-3.0821,-3.0857,-3.0845,-3.086,-3.0864,-3.0867,-3.087,-3.0773,-3.0864,-3.0864,-3.0864,-3.0863,-3.0863,0,-3.0466,-3.0487,-3.0526,-3.057,-3.0603,-3.0597,-3.063,-3.0658,-3.07,-3.0729,-3.0762,-3.0812,-3.0852,-3.0873,-3.0912,-3.0936,-3.0934,-3.0946,-3.0944,-3.0948,-3.0879,-3.0866,-3.0947,-3.0947,-3.0947,-3.0947,-3.0947,-3.0947,-3.0514,-3.057,-3.058,-3.0648,-3.0668,-3.0716,-3.0736,-3.0762,-3.0785,-3.0841,-3.0875,-3.0889,-3.0914,-3.0955,-3.0991,-3.0996,-3.101,-3.1023,-3.1026,-3.0961,-3.0953,-3.0944,-3.0932,-3.1026,-3.1026,-3.1093,-3.1093,-3.1094]}]]